STARLINK-35383

Last updated on Mon Oct 20 2025 00:02:07 GMT+0000 (Coordinated Universal Time)

1 65793U 25218C 25292.26570305 .00058761 00000+0 10731-2 0 9996 2 65793 97.6022 152.8362 0001646 92.0889 268.0550 15.49213185 3646
UTC large
Height (km)
Speed (km/s)
/
Latitude / Longitude
Inclination (degrees)
Orbital Period (minutes)
Azimuth
Elevation
Range (km)
Doppler Factor

Next 0 passes for location: London (51.5072 / 0.1276)

Sorry there are no passes over London.